Погода в Адаке

США     51°52′11″N   176°38′27″W
темп.,
°C
ветер,
м/с
пор.,
м/с
влажн.,
%
обл.,
%
осадки,
мм/ч
давл.,
гПа
погр.,
м
19 апреля, пн
пн1901:00+2с4583100 0.1 1027563
04:00+2ссз458495 0.2 1026476
07:00+1с348868 0.1 1026195
10:00+1с478610 0.1 1027513
13:00+3с710736 0.0 10261011
16:00+4с912715 0.0 10251022
19:00+3с13157840 0.0 1024938
22:00+2ссз10148693 0.1 1023800
20 апреля, вт
вт2001:00+2с91590100 0.0 1022727
04:00+2с91493100 0.0 1021642
07:00+2с91391100 0.1 1020708
10:00+2с81288100 0.2 1019630
13:00+3ссз81190100 0.1 1019695
16:00+3с71392100 0.1 1018688
19:00+4с8138470 0.0 1017758
22:00+4ссв91390100 0.0 1017715
21 апреля, ср
ср2101:00+3ссв6992100 0.0 1017518
04:00+3с4793100 0.1 1017563
07:00+3ссв4694100 0.1 1016396
10:00+4ссв3491100 0.2 1016205
13:00+5с347154 0.0 1016518
16:00+6с78725 0.1 1015762
19:00+5ссз7108375 0.0 1013693
22:00+4с7128798 0.0 1012686
22 апреля, чт
чт2201:00+3ссз7129166 0.0 1011647
04:00+3ссз71291100 0.0 1010594
07:00+3ссз91391100 0.2 1008622
10:00+3ссз71186100 0.2 1008638
13:00+3ссз5696100 0.1 1009571
16:00+4с3596100 0.3 1008427
19:00+6св237555 0.1 1007679
22:00+5в347698 0.1 1008566
23 апреля, пт
пт2301:00+4в588791 0.0 1008441
04:00+4вюв61086100 0.0 1006583
07:00+3вюв91488100 0.0 1004644
10:00+3вюв121594100 1.7 1002617
13:00+3вюв131996100 7.6 999664
16:00+4вюв81396100 11.0 997531
19:00+4ююв5898100 0.6 995376
22:00+3ююв51088100 0.7 995694